Dades meteomassalio
Diari Summary for Diciembre 7, 2017 Units:  Metric    English   Both
« Previous Day
Next Day »
Diari Semanal Mensual Anual Personalitzat
  Maxima: Minima: Mijana:
Temperatura: -17.8 °C -22.4 °C -19 °C
Rosada: -17.8 °C -23.2 °C -20.7 °C
Humitat: Humidity % 58 % 80 %
Velocitat del vent: 0 km/h 0 km/h 1.4 km/h
Racha vent: 0 km/h - -
Vent:- - SW
Pressio: 0 hPa 34967.2 hPa -
Pluja: 0 mm    
Historical Graphs
 
 
Tabular Data for Diciembre 7, 2017
Time Temperature Dew Point Pressure Wind Wind Speed Wind Gust Humidity Rainfall Rate (Hourly) solar Conditions
-17.8 °C -17.8 °C 0 hPa Calm     Humidity % 0 mm SolarRadiationWatts/m^2 W/m2 Conditions
00:04 -20.9 °C -21.9 °C 35129.8 hPa WSW 9 km/h 9 km/h 87 % 0 mm 0.0 W/m2 RA
00:09 -20.9 °C -21.8 °C 35129.8 hPa Calm     88 % 0 mm 0.0 W/m2 CLR
00:14 -20.9 °C -21.8 °C 35129.8 hPa Calm     88 % 0 mm 0.0 W/m2 CLR
00:19 -21.2 °C -22.1 °C 35116.2 hPa WSW 6 km/h 6 km/h 88 % 0 mm 0.0 W/m2 CLR
00:24 -21.2 °C -22.1 °C 35116.2 hPa WSW 9 km/h 9 km/h 88 % 0 mm 0.0 W/m2 CLR
00:29 -21.2 °C -22.1 °C 35116.2 hPa WSW 6 km/h 6 km/h 88 % 0 mm 0.0 W/m2 CLR
00:34 -21.2 °C -22.1 °C 35116.2 hPa WSW 3.1 km/h 3.1 km/h 88 % 0 mm 0.0 W/m2 CLR
00:39 -21.2 °C -22.1 °C 35116.2 hPa Calm     88 % 0 mm 0.0 W/m2 CLR
00:44 -21.2 °C -22.2 °C 35116.2 hPa Calm     87 % 0 mm 0.0 W/m2 CLR
00:49 -21.2 °C -22.1 °C 35116.2 hPa Calm     88 % 0 mm 0.0 W/m2 CLR
00:54 -21.2 °C -22.1 °C 35116.2 hPa West 9 km/h 9 km/h 88 % 0 mm 0.0 W/m2 CLR
00:59 -21.2 °C -22.1 °C 35116.2 hPa Calm     88 % 0 mm 0.0 W/m2 CLR
01:04 -21.2 °C -22.1 °C 35116.2 hPa Calm     88 % 0 mm 0.0 W/m2 CLR
01:05 -21.2 °C -22.1 °C 35116.2 hPa Calm     88 % 0 mm 0.0 W/m2 CLR
01:10 -20.9 °C -21.9 °C 35106 hPa Calm     87 % 0 mm 0.0 W/m2 CLR
01:15 -20.9 °C -21.8 °C 35106 hPa West 3.1 km/h   88 % 0 mm 0.0 W/m2 CLR
01:20 -21.2 °C -22.1 °C 35106 hPa West 2.6 km/h 2.6 km/h 88 % 0 mm 0.0 W/m2 CLR
01:25 -21.2 °C -22 °C 35106 hPa West 6 km/h 6 km/h 89 % 0 mm 0.0 W/m2 CLR
01:30 -21.2 °C -22 °C 35106 hPa West 6 km/h 6 km/h 89 % 0 mm 0.0 W/m2 CLR
01:35 -21.2 °C -22.1 °C 35106 hPa Calm     88 % 0 mm 0.0 W/m2 CLR
01:40 -21.2 °C -22.1 °C 35095.9 hPa Calm     88 % 0 mm 0.0 W/m2 CLR
01:45 -21.2 °C -22.1 °C 35095.9 hPa Calm     88 % 0 mm 0.0 W/m2 CLR
01:50 -20.9 °C -21.8 °C 35095.9 hPa Calm     88 % 0 mm 0.0 W/m2 CLR
01:55 -20.9 °C -21.8 °C 35095.9 hPa West 9 km/h 9 km/h 88 % 0 mm 0.0 W/m2 CLR
02:00 -20.9 °C -21.7 °C 35095.9 hPa WSW 10.3 km/h 10.3 km/h 89 % 0 mm 0.0 W/m2 CLR
02:05 -21.2 °C -22 °C 35095.9 hPa WSW 9 km/h 9 km/h 89 % 0 mm 0.0 W/m2 CLR
02:10 -21.2 °C -22 °C 35095.9 hPa Calm     89 % 0 mm 0.0 W/m2 CLR
02:15 -21.2 °C -22 °C 35095.9 hPa Calm     89 % 0 mm 0.0 W/m2 CLR
02:20 -21.2 °C -22 °C 35095.9 hPa WSW 2.6 km/h 2.6 km/h 89 % 0 mm 0.0 W/m2 CLR
02:25 -21.2 °C -22 °C 35095.9 hPa Calm     89 % 0 mm 0.0 W/m2 CLR
02:30 -21.2 °C -22 °C 35095.9 hPa Calm     89 % 0 mm 0.0 W/m2 CLR
02:35 -21.5 °C -22.3 °C 35095.9 hPa Calm     90 % 0 mm 0.0 W/m2 CLR
02:40 -21.5 °C -22.3 °C 35095.9 hPa Calm     89 % 0 mm 0.0 W/m2 CLR
02:45 -21.5 °C -22.3 °C 35095.9 hPa Calm     89 % 0 mm 0.0 W/m2 CLR
02:50 -21.5 °C -22.3 °C 35095.9 hPa Calm     89 % 0 mm 0.0 W/m2 CLR
02:55 -21.5 °C -22.3 °C 35095.9 hPa West 9 km/h 9 km/h 89 % 0 mm 0.0 W/m2 CLR
03:00 -21.5 °C -22.3 °C 35095.9 hPa Calm     89 % 0 mm 0.0 W/m2 CLR
03:05 -21.5 °C -22.3 °C 35106 hPa Calm     90 % 0 mm 0.0 W/m2 CLR
03:10 -21.5 °C -22.3 °C 35106 hPa West 3.1 km/h   90 % 0 mm 0.0 W/m2 CLR
03:15 -21.5 °C -22.3 °C 35106 hPa Calm     90 % 0 mm 0.0 W/m2 CLR
03:20 -21.5 °C -22.3 °C 35106 hPa Calm     89 % 0 mm 0.0 W/m2 CLR
03:25 -21.5 °C -22.3 °C 35106 hPa Calm     90 % 0 mm 0.0 W/m2 CLR
03:30 -21.5 °C -22.3 °C 35095.9 hPa Calm     90 % 0 mm 0.0 W/m2 CLR
03:35 -21.5 °C -22.3 °C 35095.9 hPa Calm     89 % 0 mm 0.0 W/m2 CLR
03:40 -21.5 °C -22.3 °C 35095.9 hPa Calm     90 % 0 mm 0.0 W/m2 CLR
03:45 -21.5 °C -22.3 °C 35095.9 hPa Calm     90 % 0 mm 0.0 W/m2 CLR
03:50 -21.5 °C -22.3 °C 35095.9 hPa Calm     89 % 0 mm 0.0 W/m2 CLR
03:55 -21.8 °C -22.6 °C 35095.9 hPa Calm     89 % 0 mm 0.0 W/m2 CLR
04:00 -21.8 °C -22.6 °C 35095.9 hPa Calm     89 % 0 mm 0.0 W/m2 CLR
04:05 -21.8 °C -22.6 °C 35095.9 hPa Calm     89 % 0 mm 0.0 W/m2 CLR
04:11 -21.8 °C -22.6 °C 35095.9 hPa Calm     89 % 0 mm 0.0 W/m2 CLR
04:16 -21.8 °C -22.6 °C 35095.9 hPa Calm     90 % 0 mm 0.0 W/m2 CLR
04:21 -21.8 °C -22.6 °C 35095.9 hPa Calm     90 % 0 mm 0.0 W/m2 CLR
04:22 -21.8 °C -22.6 °C 35095.9 hPa Calm     90 % 0 mm 0.0 W/m2 CLR
04:23 -21.8 °C -22.6 °C 35095.9 hPa Calm     90 % 0 mm 0.0 W/m2 CLR
04:28 -21.8 °C -22.6 °C 35082.3 hPa Calm     90 % 0 mm 0.0 W/m2 CLR
04:33 -21.8 °C -22.6 °C 35082.3 hPa West 9 km/h 9 km/h 90 % 0 mm 0.0 W/m2 CLR
04:38 -21.8 °C -22.6 °C 35082.3 hPa West 6 km/h 6 km/h 90 % 0 mm 0.0 W/m2 CLR
04:43 -21.8 °C -22.6 °C 35082.3 hPa Calm     90 % 0 mm 0.0 W/m2 CLR
04:48 -22.1 °C -22.8 °C 35082.3 hPa Calm     90 % 0 mm 0.0 W/m2 CLR
04:53 -22.1 °C -22.8 °C 35082.3 hPa Calm     90 % 0 mm 0.0 W/m2 CLR
05:03 -22.1 °C -22.9 °C 35082.3 hPa Calm     89 % 0 mm 0.0 W/m2 CLR
05:08 -22.1 °C -22.9 °C 35082.3 hPa West 3.1 km/h 3.1 km/h 89 % 0 mm 0.0 W/m2 CLR
05:13 -22.1 °C -22.8 °C 35082.3 hPa Calm     90 % 0 mm 0.0 W/m2 CLR
05:18 -22.1 °C -22.8 °C 35082.3 hPa Calm     90 % 0 mm 0.0 W/m2 CLR
05:23 -22.1 °C -22.8 °C 35082.3 hPa Calm     90 % 0 mm 0.0 W/m2 CLR
05:28 -21.8 °C -22.6 °C 35082.3 hPa Calm     90 % 0 mm 0.0 W/m2 CLR
05:33 -21.8 °C -22.6 °C 35082.3 hPa Calm     90 % 0 mm 0.0 W/m2 CLR
05:38 -21.8 °C -22.6 °C 35072.2 hPa West 6 km/h 6 km/h 90 % 0 mm 0.0 W/m2 CLR
05:43 -21.8 °C -22.6 °C 35072.2 hPa Calm     90 % 0 mm 0.0 W/m2 CLR
05:48 -21.8 °C -22.6 °C 35072.2 hPa West 6 km/h 6 km/h 90 % 0 mm 0.0 W/m2 CLR
05:53 -21.8 °C -22.6 °C 35072.2 hPa Calm     90 % 0 mm 0.0 W/m2 CLR
05:58 -21.8 °C -22.6 °C 35072.2 hPa Calm     90 % 0 mm 0.0 W/m2 CLR
06:03 -21.8 °C -22.6 °C 35072.2 hPa Calm     90 % 0 mm 0.0 W/m2 CLR
06:08 -21.8 °C -22.6 °C 35072.2 hPa WSW 9 km/h 9 km/h 90 % 0 mm 0.0 W/m2 CLR
06:13 -21.8 °C -22.6 °C 35072.2 hPa WSW 10.3 km/h 10.3 km/h 90 % 0 mm 0.0 W/m2 CLR
06:18 -21.8 °C -22.6 °C 35058.6 hPa West 11.9 km/h 11.9 km/h 90 % 0 mm 0.0 W/m2 CLR
06:23 -22.1 °C -22.8 °C 35058.6 hPa Calm     90 % 0 mm 0.0 W/m2 CLR
06:28 -22.1 °C -22.8 °C 35058.6 hPa Calm     90 % 0 mm 0.0 W/m2 CLR
06:33 -22.1 °C -22.8 °C 35058.6 hPa Calm     90 % 0 mm 0.0 W/m2 CLR
06:38 -22.1 °C -22.8 °C 35058.6 hPa Calm     90 % 0 mm 0.0 W/m2 CLR
06:43 -22.1 °C -22.8 °C 35058.6 hPa West 15 km/h 15 km/h 90 % 0 mm 0.0 W/m2 CLR
06:48 -22.1 °C -22.8 °C 35058.6 hPa West 6 km/h 6 km/h 91 % 0 mm 0.0 W/m2 CLR
06:53 -22.1 °C -22.8 °C 35058.6 hPa Calm     90 % 0 mm 0.0 W/m2 CLR
06:58 -22.1 °C -22.8 °C 35072.2 hPa Calm     90 % 0 mm 0.0 W/m2 CLR
07:03 -22.1 °C -22.8 °C 35072.2 hPa Calm     90 % 0 mm 0.0 W/m2 CLR
07:08 -22.1 °C -22.8 °C 35072.2 hPa Calm     90 % 0 mm 0.0 W/m2 CLR
07:13 -22.4 °C -23.2 °C 35072.2 hPa West 6 km/h 6 km/h 90 % 0 mm 0.0 W/m2 CLR
07:15 -22.4 °C -23.2 °C 35072.2 hPa West 3.1 km/h 3.1 km/h 90 % 0 mm 0.0 W/m2 CLR
07:20 -22.4 °C -23.1 °C 35072.2 hPa West 6 km/h 6 km/h 91 % 0 mm 0.0 W/m2 CLR
07:25 -22.4 °C -23.2 °C 35072.2 hPa Calm     90 % 0 mm 0.0 W/m2 CLR
07:30 -22.1 °C -22.8 °C 35072.2 hPa West 15.6 km/h 15.6 km/h 90 % 0 mm 0.0 W/m2 CLR
07:35 -22.1 °C -22.8 °C 35072.2 hPa West 9 km/h 9 km/h 91 % 0 mm 0.0 W/m2 CLR
07:40 -22.1 °C -22.8 °C 35082.3 hPa Calm     90 % 0 mm 0.0 W/m2 CLR
07:45 -22.1 °C -22.8 °C 35082.3 hPa Calm     90 % 0 mm 0.0 W/m2 CLR
07:50 -22.4 °C -23.2 °C 35082.3 hPa Calm     90 % 0 mm 0.0 W/m2 CLR
07:55 -22.1 °C -22.8 °C 35082.3 hPa West 15 km/h 15 km/h 90 % 0 mm 0.0 W/m2 CLR
08:00 -22.1 °C -22.8 °C 35072.2 hPa West 9 km/h 9 km/h 90 % 0 mm 5.0 W/m2 CLR
08:05 -21.8 °C -22.4 °C 35082.3 hPa Calm     91 % 0 mm 9.0 W/m2 OVC
08:10 -21.8 °C -22.6 °C 35082.3 hPa Calm     90 % 0 mm 12.0 W/m2 OVC
08:15 -21.8 °C -22.6 °C 35072.2 hPa Calm     90 % 0 mm 14.0 W/m2 BKN
08:20 -21.8 °C -22.6 °C 35072.2 hPa Calm     90 % 0 mm 14.0 W/m2 BKN
08:25 -21.8 °C -22.6 °C 35072.2 hPa Calm     90 % 0 mm 18.0 W/m2 BKN
08:30 -21.8 °C -22.6 °C 35082.3 hPa West 3.1 km/h 3.1 km/h 90 % 0 mm 25.0 W/m2 BKN
08:35 -21.8 °C -22.6 °C 35082.3 hPa Calm     90 % 0 mm 37.0 W/m2 BKN
08:40 -21.8 °C -22.4 °C 35082.3 hPa West 9 km/h 9 km/h 91 % 0 mm 49.0 W/m2 SCT
08:45 -21.5 °C -22.2 °C 35082.3 hPa Calm     91 % 0 mm 63.0 W/m2 SCT
08:50 -21.5 °C -22.2 °C 35072.2 hPa Calm     91 % 0 mm 76.0 W/m2 FEW
08:55 -21.2 °C -21.9 °C 35082.3 hPa Calm     90 % 0 mm 67.0 W/m2 FEW
09:00 -21.2 °C -22 °C 35082.3 hPa Calm     89 % 0 mm 70.0 W/m2 FEW
09:01 -21.2 °C -22 °C 35082.3 hPa Calm     89 % 0 mm 70.0 W/m2 FEW
09:06 -20.9 °C -21.6 °C 35082.3 hPa Calm     90 % 0 mm 83.0 W/m2 FEW
09:11 -20.9 °C -21.6 °C 35082.3 hPa Calm     90 % 0 mm 100.0 W/m2 CLR
09:16 -20.9 °C -21.7 °C 35082.3 hPa Calm     89 % 0 mm 109.0 W/m2 CLR
09:21 -20.6 °C -21.4 °C 35082.3 hPa Calm     89 % 0 mm 109.0 W/m2 CLR
09:26 -20.2 °C -21.1 °C 35082.3 hPa Calm     89 % 0 mm 104.0 W/m2 CLR
09:31 -20.2 °C -21.1 °C 35095.9 hPa Calm     89 % 0 mm 121.0 W/m2 CLR
09:36 -20.2 °C -21.1 °C 35095.9 hPa Calm     89 % 0 mm 132.0 W/m2 CLR
09:41 -19.9 °C -20.7 °C 35095.9 hPa Calm     90 % 0 mm 155.0 W/m2 CLR
09:46 -19.9 °C -20.8 °C 35095.9 hPa Calm     89 % 0 mm 165.0 W/m2 CLR
09:51 -19.6 °C -20.5 °C 35095.9 hPa Calm     89 % 0 mm 139.0 W/m2 CLR
09:56 -19.6 °C -20.6 °C 35106 hPa Calm     88 % 0 mm 139.0 W/m2 CLR
10:01 -19.3 °C -20.3 °C 35106 hPa Calm     88 % 0 mm 149.0 W/m2 CLR
10:06 -19.3 °C -20.4 °C 35106 hPa Calm     87 % 0 mm 144.0 W/m2 CLR
10:11 -19 °C -20.1 °C 35106 hPa Calm     87 % 0 mm 163.0 W/m2 CLR
10:16 -19 °C -20.1 °C 35106 hPa Calm     87 % 0 mm 174.0 W/m2 CLR
10:21 -18.7 °C -19.8 °C 35106 hPa Calm     87 % 0 mm 192.0 W/m2 CLR
10:26 -18.7 °C -19.8 °C 35106 hPa Calm     87 % 0 mm 223.0 W/m2 CLR
10:31 -18.7 °C -19.8 °C 35106 hPa Calm     86 % 0 mm 192.0 W/m2 CLR
10:36 -18.4 °C -19.6 °C 35106 hPa Calm     85 % 0 mm 232.0 W/m2 CLR
10:41 -18.1 °C -19.3 °C 35116.2 hPa Calm     85 % 0 mm 253.0 W/m2 CLR
10:46 -18.1 °C -19.4 °C 35116.2 hPa Calm     84 % 0 mm 162.0 W/m2 CLR
10:51 -17.8 °C -19.1 °C 35116.2 hPa Calm     84 % 0 mm 204.0 W/m2 CLR
10:56 -17.8 °C -19.2 °C 35129.8 hPa Calm     83 % 0 mm 225.0 W/m2 CLR
11:01 -17.4 °C -18.9 °C 35116.2 hPa Calm     83 % 0 mm 221.0 W/m2 CLR
11:06 -17.4 °C -19.1 °C 35116.2 hPa Calm     81 % 0 mm 327.0 W/m2 CLR
11:11 -17.2 °C -18.7 °C 35116.2 hPa Calm     82 % 0 mm 394.0 W/m2 CLR
11:16 -16.8 °C -18.4 °C 35116.2 hPa Calm     81 % 0 mm 410.0 W/m2 CLR
11:21 -16.8 °C -18.7 °C 35116.2 hPa Calm     79 % 0 mm 174.0 W/m2 CLR
11:26 -16.6 °C -18.4 °C 35116.2 hPa Calm     78 % 0 mm 169.0 W/m2 CLR
11:31 -16.6 °C -18.6 °C 35106 hPa Calm     77 % 0 mm 165.0 W/m2 CLR
11:36 -16.6 °C -18.6 °C 35106 hPa Calm     77 % 0 mm 167.0 W/m2 CLR
11:41 -16.2 °C -18.2 °C 35106 hPa Calm     77 % 0 mm 206.0 W/m2 CLR
11:46 -16.2 °C -18.2 °C 35095.9 hPa Calm     77 % 0 mm 283.0 W/m2 CLR
11:51 -16.2 °C -18.2 °C 35095.9 hPa Calm     77 % 0 mm 338.0 W/m2 CLR
11:56 -15.9 °C -18.1 °C 35095.9 hPa Calm     76 % 0 mm 271.0 W/m2 CLR
12:01 -15.9 °C -18.2 °C 35082.3 hPa Calm     75 % 0 mm 230.0 W/m2 CLR
12:06 -15.9 °C -18.3 °C 35072.2 hPa Calm     74 % 0 mm 244.0 W/m2 CLR
12:11 -15.9 °C -18.4 °C 35072.2 hPa Calm     73 % 0 mm 253.0 W/m2 CLR
12:16 -15.6 °C -18.1 °C 35072.2 hPa Calm     73 % 0 mm 404.0 W/m2 CLR
12:21 -15.3 °C -17.9 °C 35072.2 hPa Calm     72 % 0 mm 436.0 W/m2 CLR
12:26 -15 °C -17.7 °C 35072.2 hPa Calm     71 % 0 mm 404.0 W/m2 CLR
12:31 -15 °C -17.8 °C 35072.2 hPa Calm     70 % 0 mm 353.0 W/m2 CLR
12:36 -14.7 °C -17.7 °C 35058.6 hPa Calm     68 % 0 mm 357.0 W/m2 CLR
12:41 -14.7 °C -17.7 °C 35058.6 hPa Calm     68 % 0 mm 315.0 W/m2 CLR
12:46 -14.4 °C -17.6 °C 35058.6 hPa Calm     67 % 0 mm 297.0 W/m2 CLR
12:51 -14.4 °C -17.7 °C 35058.6 hPa Calm     66 % 0 mm 387.0 W/m2 CLR
12:56 -14.4 °C -17.7 °C 35058.6 hPa Calm   0.3 km/h 66 % 0 mm 359.0 W/m2 CLR
13:01 -14.4 °C -17.8 °C 35048.5 hPa Calm     65 % 0 mm 359.0 W/m2 CLR
13:06 -14.1 °C -17.4 °C 35048.5 hPa Calm     65 % 0 mm 350.0 W/m2 CLR
13:11 -14.1 °C -17.6 °C 35048.5 hPa Calm     64 % 0 mm 290.0 W/m2 CLR
13:16 -14.1 °C -17.6 °C 35048.5 hPa Calm     64 % 0 mm 246.0 W/m2 CLR
13:21 -14.1 °C -17.7 °C 35038.3 hPa East 6 km/h 6 km/h 63 % 0 mm 420.0 W/m2 CLR
13:26 -13.8 °C -17.6 °C 35038.3 hPa East 9 km/h 9 km/h 62 % 0 mm 353.0 W/m2 CLR
13:36 -14.1 °C -17.7 °C 35038.3 hPa ENE 9 km/h 9 km/h 63 % 0 mm 248.0 W/m2 CLR
13:41 -14.1 °C -17.7 °C 35038.3 hPa East 15.6 km/h 15.6 km/h 63 % 0 mm 262.0 W/m2 CLR
13:46 -14.1 °C -17.7 °C 35038.3 hPa ENE 20.9 km/h 20.9 km/h 63 % 0 mm 227.0 W/m2 CLR
13:51 -14.4 °C -17.9 °C 35038.3 hPa ENE 15 km/h 15 km/h 64 % 0 mm 239.0 W/m2 CLR
13:56 -14.4 °C -17.8 °C 35038.3 hPa ENE 9 km/h 9 km/h 65 % 0 mm 359.0 W/m2 CLR
14:06 -14.1 °C -17.4 °C 35038.3 hPa East 28.5 km/h 28.5 km/h 65 % 0 mm 197.0 W/m2 CLR
14:21 -14.4 °C -17.6 °C 35024.8 hPa NE 10.3 km/h 10.3 km/h 67 % 0 mm 218.0 W/m2 CLR
14:26 -14.4 °C -17.7 °C 35024.8 hPa ENE 3.1 km/h 3.1 km/h 66 % 0 mm 214.0 W/m2 CLR
14:31 -14.4 °C -17.7 °C 35024.8 hPa East 15 km/h 15 km/h 66 % 0 mm 220.0 W/m2 CLR
14:36 -14.4 °C -17.7 °C 35014.6 hPa Calm     66 % 0 mm 232.0 W/m2 CLR
14:46 -14.1 °C -17.3 °C 35014.6 hPa Calm     66 % 0 mm 248.0 W/m2 CLR
14:51 -14.1 °C -17.4 °C 35014.6 hPa Calm     65 % 0 mm 241.0 W/m2 CLR
14:56 -14.1 °C -17.6 °C 35001.1 hPa Calm     64 % 0 mm 211.0 W/m2 CLR
15:01 -13.8 °C -17.3 °C 35001.1 hPa Calm     64 % 0 mm 209.0 W/m2 CLR
15:06 -13.8 °C -17.3 °C 35001.1 hPa Calm     64 % 0 mm 241.0 W/m2 CLR
15:07 -13.8 °C -17.3 °C 35001.1 hPa Calm     64 % 0 mm 204.0 W/m2 CLR
15:12 -13.8 °C -17.3 °C 35001.1 hPa Calm     64 % 0 mm 281.0 W/m2 CLR
15:17 -13.8 °C -17.4 °C 35001.1 hPa Calm     63 % 0 mm 339.0 W/m2 CLR
15:22 -13.4 °C -17.3 °C 35001.1 hPa Calm     62 % 0 mm 357.0 W/m2 CLR
15:25 -13.4 °C -17.3 °C 35001.1 hPa Calm     62 % 0 mm 341.0 W/m2 CLR
15:33 -13.4 °C -17.5 °C 35001.1 hPa Calm     60 % 0 mm 352.0 W/m2 CLR
15:38 -13.2 °C -17.2 °C 34990.9 hPa Calm     60 % 0 mm 352.0 W/m2 CLR
15:43 -13.2 °C -17.3 °C 35001.1 hPa Calm     59 % 0 mm 148.0 W/m2 CLR
15:48 -13.4 °C -17.6 °C 35001.1 hPa Calm     59 % 0 mm 128.0 W/m2 CLR
15:53 -13.4 °C -17.5 °C 34990.9 hPa Calm     60 % 0 mm 134.0 W/m2 CLR
15:58 -13.4 °C -17.5 °C 34990.9 hPa Calm     60 % 0 mm 176.0 W/m2 CLR
16:03 -13.4 °C -17.5 °C 34990.9 hPa Calm     60 % 0 mm 258.0 W/m2 CLR
16:08 -13.4 °C -17.6 °C 35001.1 hPa Calm     59 % 0 mm 163.0 W/m2 CLR
16:18 -13.8 °C -18.1 °C 35001.1 hPa Calm     58 % 0 mm 148.0 W/m2 CLR
16:23 -13.8 °C -18.1 °C 34990.9 hPa Calm     58 % 0 mm 123.0 W/m2 CLR
16:25 -13.8 °C -17.9 °C 34990.9 hPa Calm     59 % 0 mm 114.0 W/m2 CLR
16:30 -14.1 °C -18.2 °C 35001.1 hPa Calm     59 % 0 mm 84.0 W/m2 CLR
16:35 -14.1 °C -18.2 °C 35001.1 hPa Calm     59 % 0 mm 67.0 W/m2 FEW
16:50 -14.4 °C -18.4 °C 34990.9 hPa Calm     60 % 0 mm 40.0 W/m2 SCT
16:55 -14.7 °C -18.6 °C 34990.9 hPa Calm     61 % 0 mm 33.0 W/m2 BKN
17:00 -14.7 °C -18.4 °C 34990.9 hPa Calm     62 % 0 mm 23.0 W/m2 BKN
17:05 -15 °C -18.7 °C 34980.8 hPa Calm     62 % 0 mm 18.0 W/m2 BKN
17:10 -15.3 °C -18.9 °C 34980.8 hPa Calm     63 % 0 mm 16.0 W/m2 BKN
17:15 -15.6 °C -19.2 °C 34990.9 hPa Calm     63 % 0 mm 16.0 W/m2 BKN
17:20 -15.9 °C -19.3 °C 34990.9 hPa Calm     64 % 0 mm 14.0 W/m2 BKN
17:25 -16.2 °C -19.7 °C 34990.9 hPa Calm     64 % 0 mm 11.0 W/m2 BKN
17:35 -16.6 °C -19.7 °C 34990.9 hPa Calm     66 % 0 mm 5.0 W/m2 OVC
17:40 -16.6 °C -19.7 °C 34990.9 hPa Calm     66 % 0 mm 0.0 W/m2 OVC
17:45 -16.8 °C -20 °C 34990.9 hPa Calm     66 % 0 mm 0.0 W/m2 CLR
17:50 -16.8 °C -20.1 °C 34990.9 hPa Calm     65 % 0 mm 0.0 W/m2 CLR
17:55 -17.2 °C -20.2 °C 34990.9 hPa Calm     67 % 0 mm 0.0 W/m2 CLR
18:00 -17.2 °C -20.2 °C 34990.9 hPa Calm     67 % 0 mm 0.0 W/m2 CLR
18:05 -17.2 °C -19.9 °C 35001.1 hPa Calm     69 % 0 mm 0.0 W/m2 CLR
18:15 -17.4 °C -20.3 °C 35001.1 hPa Calm     69 % 0 mm 0.0 W/m2 CLR
18:20 -17.4 °C -20.3 °C 35001.1 hPa Calm     69 % 0 mm 0.0 W/m2 CLR
18:25 -17.8 °C -20.4 °C 35001.1 hPa Calm     70 % 0 mm 0.0 W/m2 CLR
18:26 -17.8 °C -20.4 °C 35001.1 hPa Calm     70 % 0 mm 0.0 W/m2 CLR
18:31 -17.8 °C -20.4 °C 35001.1 hPa Calm     70 % 0 mm 0.0 W/m2 CLR
18:36 -17.4 °C -20.1 °C 35001.1 hPa Calm     71 % 0 mm 0.0 W/m2 CLR
18:41 -17.4 °C -19.9 °C 35001.1 hPa Calm     72 % 0 mm 0.0 W/m2 CLR
18:46 -17.4 °C -19.9 °C 35001.1 hPa Calm     72 % 0 mm 0.0 W/m2 CLR
18:51 -17.4 °C -19.8 °C 35001.1 hPa Calm     73 % 0 mm 0.0 W/m2 CLR
18:56 -17.4 °C -19.8 °C 35001.1 hPa Calm     74 % 0 mm 0.0 W/m2 CLR
19:01 -17.8 °C -20.2 °C 35001.1 hPa Calm     73 % 0 mm 0.0 W/m2 CLR
19:22 -18.4 °C -20.6 °C 35001.1 hPa Calm     75 % 0 mm 0.0 W/m2 CLR
19:27 -18.4 °C -20.6 °C 35014.6 hPa Calm     75 % 0 mm 0.0 W/m2 CLR
19:32 -18.1 °C -20.1 °C 35014.6 hPa Calm     77 % 0 mm 0.0 W/m2 CLR
19:43 -18.4 °C -20.2 °C 35014.6 hPa Calm     78 % 0 mm 0.0 W/m2 CLR
19:48 -18.7 °C -20.6 °C 35014.6 hPa Calm     78 % 0 mm 0.0 W/m2 CLR
19:53 -18.7 °C -20.4 °C 35014.6 hPa Calm     79 % 0 mm 0.0 W/m2 CLR
19:58 -18.7 °C -20.4 °C 35014.6 hPa Calm     79 % 0 mm 0.0 W/m2 CLR
20:03 -19 °C -20.9 °C 35014.6 hPa Calm     78 % 0 mm 0.0 W/m2 CLR
20:08 -19 °C -20.8 °C 35014.6 hPa Calm     79 % 0 mm 0.0 W/m2 CLR
20:13 -19.3 °C -21.1 °C 35014.6 hPa Calm     79 % 0 mm 0.0 W/m2 CLR
20:18 -19.3 °C -20.9 °C 35001.1 hPa Calm     80 % 0 mm 0.0 W/m2 CLR
20:23 -19.3 °C -20.9 °C 35001.1 hPa Calm     80 % 0 mm 0.0 W/m2 CLR
20:28 -19.3 °C -20.9 °C 35001.1 hPa Calm     80 % 0 mm 0.0 W/m2 CLR
20:38 -19.6 °C -21.3 °C 35001.1 hPa Calm     80 % 0 mm 0.0 W/m2 CLR
20:43 -19.3 °C -20.9 °C 35001.1 hPa Calm     80 % 0 mm 0.0 W/m2 CLR
20:48 -19.3 °C -20.9 °C 35001.1 hPa Calm     81 % 0 mm 0.0 W/m2 CLR
20:58 -19.3 °C -20.9 °C 35001.1 hPa Calm     81 % 0 mm 0.0 W/m2 CLR
21:08 -19.3 °C -20.9 °C 35001.1 hPa Calm     81 % 0 mm 0.0 W/m2 CLR
21:13 -19.3 °C -20.9 °C 34990.9 hPa Calm     81 % 0 mm 0.0 W/m2 CLR
21:18 -19.6 °C -21.2 °C 34990.9 hPa Calm     81 % 0 mm 0.0 W/m2 CLR
21:28 -19.6 °C -21.1 °C 34990.9 hPa Calm     82 % 0 mm 0.0 W/m2 CLR
21:33 -19.6 °C -21.1 °C 34990.9 hPa Calm     82 % 0 mm 0.0 W/m2 CLR
21:38 -19.9 °C -21.4 °C 34990.9 hPa Calm     82 % 0 mm 0.0 W/m2 CLR
21:43 -19.9 °C -21.4 °C 34990.9 hPa Calm     82 % 0 mm 0.0 W/m2 CLR
21:49 -19.9 °C -21.4 °C 34990.9 hPa Calm     82 % 0 mm 0.0 W/m2 CLR
21:54 -19.9 °C -21.4 °C 34990.9 hPa Calm     82 % 0 mm 0.0 W/m2 CLR
21:59 -19.9 °C -21.4 °C 34990.9 hPa Calm     82 % 0 mm 0.0 W/m2 CLR
22:04 -19.9 °C -21.4 °C 34990.9 hPa Calm     82 % 0 mm 0.0 W/m2 CLR
22:14 -19.9 °C -21.2 °C 34980.8 hPa Calm     84 % 0 mm 0.0 W/m2 CLR
22:19 -19.9 °C -21.2 °C 34980.8 hPa Calm     84 % 0 mm 0.0 W/m2 CLR
22:29 -20.2 °C -21.6 °C 34980.8 hPa Calm     83 % 0 mm 0.0 W/m2 CLR
22:34 -20.2 °C -21.7 °C 34980.8 hPa Calm     82 % 0 mm 0.0 W/m2 CLR
22:39 -20.2 °C -21.6 °C 34980.8 hPa Calm     83 % 0 mm 0.0 W/m2 CLR
22:44 -19.9 °C -21.3 °C 34980.8 hPa Calm     83 % 0 mm 0.0 W/m2 CLR
22:49 -19.6 °C -20.9 °C 34967.2 hPa Calm     84 % 0 mm 0.0 W/m2 CLR
22:54 -19.9 °C -21.2 °C 34967.2 hPa Calm     84 % 0 mm 0.0 W/m2 CLR
22:59 -19.9 °C -21.2 °C 34967.2 hPa Calm     85 % 0 mm 0.0 W/m2 CLR
23:05 -19.9 °C -21.2 °C 34980.8 hPa Calm     84 % 0 mm 0.0 W/m2 CLR
23:10 -19.9 °C -21.2 °C 34980.8 hPa Calm     84 % 0 mm 0.0 W/m2 CLR
23:15 -20.2 °C -21.5 °C 34980.8 hPa Calm     84 % 0 mm 0.0 W/m2 CLR
23:20 -20.2 °C -21.5 °C 34967.2 hPa Calm     84 % 0 mm 0.0 W/m2 CLR
23:25 -20.2 °C -21.5 °C 34967.2 hPa Calm     84 % 0 mm 0.0 W/m2 CLR
23:30 -20.2 °C -21.4 °C 34967.2 hPa Calm     85 % 0 mm 0.0 W/m2 CLR
23:35 -19.9 °C -21.2 °C 34967.2 hPa Calm     85 % 0 mm 0.0 W/m2 CLR
23:40 -19.9 °C -21.2 °C 34980.8 hPa Calm     85 % 0 mm 0.0 W/m2 CLR
23:45 -19.9 °C -21.1 °C 34967.2 hPa Calm     86 % 0 mm 0.0 W/m2 CLR
23:46 -19.9 °C -21.1 °C 34967.2 hPa Calm     86 % 0 mm 0.0 W/m2 CLR
23:51 -19.9 °C -21.1 °C 34967.2 hPa Calm     86 % 0 mm 0.0 W/m2 CLR
23:56 -20.2 °C -21.4 °C 34967.2 hPa Calm     85 % 0 mm 0.0 W/m2 CLR
Lo Temps de Massalio
Compliments of Weather Underground - 1.25 mb